Mount Ida, AR

7:05 PM CDT on June 24, 2017 (GMT -0500)
Mount Ida

Weather History for KMWT - June, 2012

Change the Weather History Date:

Sunday, June 17, 2012

  Actual Average (KHOT) Record (KHOT)
Temperature  
Mean Temperature 77 °F -  
Max Temperature 89 °F 88 °F 101 °F (1953)
Min Temperature 66 °F 64 °F 51 °F (1989)
Cooling Degree Days 12    
Growing Degree Days 27 (Base 50)    
Moisture  
Dew Point 68 °F    
Average Humidity 85    
Maximum Humidity 100    
Minimum Humidity 46    
Precipitation  
Precipitation 0.00 in - - ()
Sea Level Pressure  
Sea Level Pressure 29.99 in    
Wind  
Wind Speed 0 mph (North)    
Max Wind Speed 5 mph    
Max Gust Speed -    
Visibility 4 miles    
Events Fog    
Averages and records for this station are not official NWS values.
T = Trace of Precipitation, MM = Missing Value Source: NWS Daily Summary

Daily Weather History Graph

Daily Weather History Graph

Search for Another Location

Airport or City:

Trip Planner

Search our weather history database for the weather conditions in past years. The results will help you decide how hot, cold, wet, or windy it might be!

Date:

Astronomy

Jun. 17, 2012 Rise Set
Actual Time 6:01 AM CDT 8:29 PM CDT
Civil Twilight 5:31 AM CDT 8:58 PM CDT
Nautical Twilight 4:55 AM CDT 9:35 PM CDT
Astronomical Twilight 4:15 AM CDT 10:15 PM CDT
Moon 4:28 AM CDT (6/17) 7:00 PM CDT (6/17)
Length of Visible Light 15h 27m
Length of Day
14h 28m
Waning Crescent, 3% of the Moon is Illuminated
Jun 17
Waning Crescent
Jun 19
New
Jun 26
First Quarter
Jul 3
Full
Jul 10
Last Quarter

Hourly Weather History & Observations

Time (CDT) Temp. Heat Index Dew Point Humidity Pressure Visibility Wind Dir Wind Speed Gust Speed Precip Events Conditions
12:05 AM 69.8 °F - 69.8 °F 100% 30.05 in 1.2 mi Calm Calm - N/A   Mostly Cloudy
12:33 AM 69.8 °F - 68.0 °F 94% 30.04 in 1.2 mi Calm Calm - N/A   Scattered Clouds
12:49 AM 69.8 °F - 68.0 °F 94% 30.05 in 1.0 mi Calm Calm - N/A   Mist
12:53 AM 68.0 °F - 68.0 °F 100% 30.01 in 0.8 mi Calm Calm - N/A   Mist
1:02 AM 68.0 °F - 68.0 °F 100% 30.04 in 2.0 mi Calm Calm - N/A   Mostly Cloudy
1:14 AM 69.8 °F - 68.0 °F 94% 30.04 in 1.5 mi Calm Calm - N/A   Mostly Cloudy
1:53 AM 68.0 °F - 68.0 °F 100% 30.00 in 1.5 mi Calm Calm - N/A   Scattered Clouds
1:57 AM 68.0 °F - 66.2 °F 94% 30.04 in 0.8 mi Calm Calm - N/A   Mist
2:11 AM 68.0 °F - 68.0 °F 100% 30.03 in 0.8 mi Calm Calm - N/A   Mist
2:23 AM 68.0 °F - 68.0 °F 100% 30.03 in 1.8 mi Calm Calm - N/A   Mostly Cloudy
2:49 AM 66.2 °F - 66.2 °F 100% 30.03 in 0.8 mi Calm Calm - N/A   Mist
2:53 AM 66.9 °F - 66.9 °F 100% 30.00 in 0.8 mi Calm Calm - N/A   Mist
3:19 AM 66.2 °F - 66.2 °F 100% 30.04 in 0.2 mi Calm Calm - N/A Fog Fog
3:48 AM 66.2 °F - 66.2 °F 100% 30.04 in 0.2 mi Calm Calm - N/A Fog Fog
3:53 AM 66.9 °F - 66.9 °F 100% 30.01 in 0.2 mi Calm Calm - N/A Fog Fog
4:00 AM 66.2 °F - 66.2 °F 100% 30.03 in 0.8 mi Calm Calm - N/A   Mist
4:21 AM 68.0 °F - 68.0 °F 100% 30.03 in 0.2 mi Calm Calm - N/A Fog Fog
4:53 AM 66.9 °F - 66.9 °F 100% 30.01 in 0.2 mi Calm Calm - N/A Fog Fog
5:10 AM 66.2 °F - 66.2 °F 100% 30.04 in 0.2 mi Calm Calm - N/A Fog Fog
5:53 AM 66.9 °F - 66.9 °F 100% 30.02 in 0.2 mi Calm Calm - N/A Fog Fog
6:17 AM 66.2 °F - 66.2 °F 100% 30.04 in 0.2 mi Calm Calm - N/A Fog Fog
6:53 AM 66.9 °F - 66.9 °F 100% 30.02 in 0.2 mi Calm Calm - N/A Fog Fog
7:27 AM 66.2 °F - 66.2 °F 100% 30.05 in 0.2 mi Calm Calm - N/A Fog Fog
7:53 AM 68.0 °F - 68.0 °F 100% 30.04 in 0.5 mi Calm Calm - N/A Fog Fog
8:18 AM 69.8 °F - 69.8 °F 100% 30.06 in 2.0 mi Calm Calm - N/A   Mostly Cloudy
8:31 AM 69.8 °F - 69.8 °F 100% 30.06 in 3.0 mi Calm Calm - N/A   Scattered Clouds
8:53 AM 72.0 °F - 71.1 °F 97% 30.03 in 10.0 mi Calm Calm - N/A   Clear
9:53 AM 81.0 °F 85.2 °F 72.0 °F 74% 30.01 in 10.0 mi Calm Calm - N/A   Clear
10:53 AM 82.0 °F 85.5 °F 69.1 °F 65% 30.00 in 10.0 mi Variable 3.5 mph - N/A   Clear
11:53 AM 84.0 °F 88.4 °F 70.0 °F 63% 29.98 in 10.0 mi Calm Calm - N/A   Clear
12:53 PM 84.9 °F 88.8 °F 69.1 °F 59% 29.96 in 10.0 mi Variable 4.6 mph - N/A   Partly Cloudy
1:53 PM 87.1 °F 88.9 °F 64.9 °F 48% 29.94 in 10.0 mi Calm Calm - N/A   Partly Cloudy
2:53 PM 88.0 °F 89.6 °F 64.9 °F 46% 29.91 in 10.0 mi Calm Calm - N/A   Clear
3:53 PM 87.1 °F 88.9 °F 64.9 °F 48% 29.90 in 10.0 mi Variable 4.6 mph - N/A   Partly Cloudy
4:53 PM 88.0 °F 90.3 °F 66.0 °F 48% 29.86 in 10.0 mi Variable 3.5 mph - N/A   Clear
4:56 PM - - - N/A% - - North - - N/A   Unknown
5:53 PM 88.0 °F 89.6 °F 64.9 °F 46% 29.85 in 10.0 mi Variable 3.5 mph - N/A   Partly Cloudy
6:53 PM 86.0 °F 89.4 °F 68.0 °F 55% 29.85 in 10.0 mi Calm Calm - N/A   Scattered Clouds
7:53 PM 82.9 °F 86.5 °F 69.1 °F 63% 29.85 in 10.0 mi Calm Calm - N/A   Clear
8:53 PM 78.1 °F - 69.1 °F 74% 29.85 in 10.0 mi Calm Calm - N/A   Clear
9:53 PM 77.0 °F - 69.1 °F 76% 29.85 in 10.0 mi Calm Calm - N/A   Clear
10:53 PM 75.9 °F - 68.0 °F 76% 29.85 in 10.0 mi Calm Calm - N/A   Clear
11:53 PM 79.0 °F - 66.9 °F 66% 29.84 in 10.0 mi Calm Calm - N/A   Clear
11:56 PM - - - N/A% - - North - - N/A   Unknown